{"data":{"norad_id":64007,"epoch":"2026-05-25T02:22:44.584896Z","epoch_age_seconds":62571,"freshness":"FRESH","line1":"1 64007U 25101P   26145.09912714  .00019985  00000+0  73333-3 0  9990","line2":"2 64007  42.9988 286.2163 0001341  69.4854 290.6141 15.27600661 58743","mean_motion":15.27600661,"eccentricity":0.0001341,"inclination_deg":42.9988,"raan_deg":286.2163,"arg_perigee_deg":69.4854,"mean_anomaly_deg":290.6141,"bstar":0.00073333,"rev_number":5874,"period_min":94.265473743468,"perigee_km":482.06715351091,"apogee_km":483.90730702947,"semimajor_km":6861.1242302702,"source":"CELESTRAK","updated_at":"2026-05-25T13:38:20.220362Z"}}